Location: Helsinki
(60.1699°N, 24.9384°E)
Time: 00:33:12
(UTC+02:00)

Vanguard 2 Rocket - Pass Details

Date: 22 September 2023
Orbit: 553 x 3312 km, 32.9° (Epoch: 28 November)

Event Time Altitude Azimuth Distance (km) Brightness Sun altitude
Rises 14:19:53 0° 221° (SW) 7,207 12.5 28.8°
Reaches altitude 10° 14:26:20 10° 209° (SSW) 6,265 12.8 28.5°
Maximum altitude 14:39:29 23° 167° (SSE) 4,996 11.8 27.8°
Drops below altitude 10° 14:50:47 10° 125° (SE) 5,340 11.0 27.2°
Sets 14:55:37 0° 112° (ESE) 5,946 11.0 26.9°
